Location: Newark
(47.7394°N, 8.0008°E)
Time: 14:35:44
(UTC+00:00)

N. Korean satellite - Pass Details

Date: 16 December 2019
Orbit: 454 x 508 km, 97.2° (Epoch: 17 January)

Event Time Altitude Azimuth Distance (km) Brightness Sun altitude
Rises 16:11:52 0° 160° (SSE) 2,594 10.4 -5.9°
Reaches altitude 10° 16:13:58 10° 157° (SSE) 1,710 9.4 -6.2°
Maximum altitude 16:17:37 67° 75° (ENE) 545 6.6 -6.8°
Drops below altitude 10° 16:21:16 10° 353° (N) 1,700 9.1 -7.3°
Sets 16:23:20 0° 350° (N) 2,579 10.1 -7.6°
